Regional Weather Roundup
Issued by NWS

Home | Current Version | Previous Version | Text Only | Print | Product List | Glossary Off
Versions: 1 2 3 4 5 6 7 8 9 10 11 12 13 14 15 16 17 18 19 20 21 22 23 24 25 26 27 28 29 30 31 32 33 34 35 36 37 38 39 40 41 42 43 44 45 46 47 48 49 50

000
ASUS43 KLOT 270310
RWRIL

ILLINOIS REGIONAL WEATHER ROUNDUP
NATIONAL WEATHER SERVICE CHICAGO/ROMEOVILLE IL
900 PM CST MON JAN 26 2015

NOTE: "FAIR" INDICATES FEW OR NO CLOUDS BELOW 12,000 FEET WITH NO
SIGNIFICANT WEATHER AND/OR OBSTRUCTIONS TO VISIBILITY.

* THESE STATIONS ARE NOT UNDER NWS QUALITY CONTROL. THEY ALSO MAY NOT
  REPORT WEATHER SUCH AS PRECIPITATION OR FOG.

ILZ001-002-007-009-015-016-024-270400-
NORTHWEST ILLINOIS

CITY           SKY/WX    TMP DP  RH WIND       PRES   REMARKS
MOLINE         CLOUDY    32  30  92 CALM      29.87R
STERLING*      CLOUDY    28  25  86 CALM      29.88S
SAVANNA*       CLOUDY    28  27  95 CALM      29.88S FOG
$$

ILZ003-004-008-010-011-017-018-270400-
NORTH CENTRAL ILLINOIS

CITY           SKY/WX    TMP DP  RH WIND       PRES   REMARKS
ROCKFORD       CLOUDY    26  24  92 SE5       29.90S FOG     WCI  20
FREEPORT*      LGT SNOW  25  24  96 SE3       29.89S
ROCHELLE*      CLOUDY    27  26  99 S6        29.88S FOG     WCI  20
DE KALB*       MIX PCPN  25  24  96 S7        29.88S WCI  17
PERU*          CLOUDY    29  29  99 CALM      29.88S FOG
$$

ILZ005-006-012>014-019>023-270400-
NORTHEAST ILLINOIS

CITY           SKY/WX    TMP DP  RH WIND       PRES   REMARKS
CHICAGO-OHARE  LGT SNOW  25  23  92 S3        29.90S FOG
CHICAGO-MIDWAY FRZ DRZL  28  24  85 S6        29.91S FOG     WCI  22
AURORA         CLOUDY    27  24  89 SE6       29.89S FOG     WCI  20
LANSING*       LGT SNOW  26  25  96 SE3       29.92R
JOLIET*        LGT RAIN  26  25  95 SE3       29.91R
WAUKEGAN       LGT SNOW  25  24  96 S3        29.90R FOG
DUPAGE AIRPORT CLOUDY    26  24  92 SE3       29.89R FOG
KANKAKEE*      LGT SNOW  28  27  96 SE3       29.92R
WHEELING       LGT SNOW  26  24  92 S3        29.93R FOG
MORRIS*        MIX PCPN  28  28 100 SE5       29.90R WCI  23
ROMEOVILLE*    LGT RAIN  26  26  98 S5        29.91R WCI  21
NORTHERLY ISL    N/A     26  24  92 S5          N/A  WCI  21
$$

LMZ740>746-270400-
SOUTHERN LAKE MICHIGAN

STATION/POSITION SKY/WX   TEMP    WIND        PRES    VSBY  WAVE
                          AIR SEA DIR/SP/G                  HT/PER
                          (F)     (DEG/KT/KT) (MB)    (MI)  (FT/S)
WAUKEGAN HARBOR            26     160/  7/  8   N/A
HARRISON CRIB              26     170/  8/ 10   N/A
BURNHAM HARBOR             26     150/  4/  6   N/A
CALUMET HARBOR             26     140/  4/  5   N/A
MICHIGAN CITY              23     110/  6/  8   N/A
$$

ILZ025>027-034>036-040-047-049-050-058-095>099-270400-
WEST-CENTRAL ILLINOIS

CITY           SKY/WX    TMP DP  RH WIND       PRES   REMARKS
QUINCY         CLOUDY    37  33  85 W6        29.90R WCI  32
GALESBURG*     CLOUDY    33  32  96 SW5       29.88R WCI  29
MACOMB*        CLOUDY    33  32  96 SW3       29.90R
JACKSONVILLE*  CLOUDY    35  32  87 SW5       29.90S WCI  31
PITTSFIELD*    CLOUDY    36  32  85 SW3       29.91R
$$

ILZ028>032-037-038-041>044-048-051>054-059>061-270400-
CENTRAL ILLINOIS

CITY           SKY/WX    TMP DP  RH WIND       PRES   REMARKS
PONTIAC        CLOUDY    31  30  97 S7        29.90S FOG     WCI  24
BLOOMINGTON    CLOUDY    30  30 100 SW8       29.89S FOG     WCI  22
DECATUR        CLOUDY    30  30 100 S5        29.90S FOG     WCI  25
PEORIA         CLOUDY    32  30  92 CALM      29.89S FOG
LACON*         CLOUDY    29  28  96 CALM      29.88R FOG
LINCOLN*       CLOUDY    32  31  95 S3        29.91S FOG
SPRINGFIELD    CLOUDY    32  29  88 S6        29.89F WCI  26
TAYLORVILLE    CLOUDY    32  30  93 S8        29.90F WCI  25
$$

ILZ033-039-045-046-055>057-062-063-270400-
EAST-CENTRAL ILLINOIS

CITY           SKY/WX    TMP DP  RH WIND       PRES   REMARKS
CHAMPAIGN      FRZ RAIN  29  28  96 S9        29.90S FOG     WCI  20
DANVILLE*      DRIZZLE   27  27  97 S7        29.90R WCI  20
RANTOUL*       MIX PCPN  30  29  95 S8        29.90F WCI  22
MATTOON        CLOUDY    28  26  92 S5        29.90S FOG     WCI  23
PARIS*         CLOUDY    28  28  98 NE5       29.93F FOG     WCI  23
$$

ILZ079-100>102-270400-
SOUTHWEST ILLINOIS

CITY           SKY/WX    TMP DP  RH WIND       PRES   REMARKS
ALTON          CLOUDY    36  30  80 S6        29.92S WCI  31
BELLEVILLE     CLOUDY    34  31  90 VRB3      29.92F
CAHOKIA*       CLOUDY    35  29  78 S3        29.93R
SPARTA*        CLOUDY    33  29  85 S5        29.94S WCI  29
$$

ILZ064>066-069>071-074>076-080>082-084>086-088>090-092>094-270400-
SOUTH-CENTRAL ILLINOIS

CITY           SKY/WX    TMP DP  RH WIND       PRES   REMARKS
CARBONDALE     CLOUDY    35  29  78 S3        29.94R
CAIRO*         CLEAR     33  30  90 CALM      29.94S
EFFINGHAM*     CLOUDY    30  28  90 S3        29.94R FOG
MARION         CLOUDY    36  32  87 SW5       29.94R WCI  32
MT. VERNON     CLOUDY    34  27  75 S5        29.94S WCI  30
CENTRALIA*     CLOUDY    33  28  83 S6        29.92S WCI  27
SALEM*         CLOUDY    34  30  85 SE5       29.93S WCI  30
METROPOLIS*    CLOUDY    37  32  83 CALM      29.93F
$$

ILZ067-068-072-073-078-083-087-091-270400-
SOUTHEAST ILLINOIS

CITY           SKY/WX    TMP DP  RH WIND       PRES   REMARKS
LAWRENCEVILLE  CLOUDY    29  27  92 S7        29.95F FOG     WCI  22
FLORA*         CLOUDY    30  29  96 S6        29.94S WCI  24
FAIRFIELD*     CLOUDY    31  29  92 S5        29.93F WCI  26
HARRISBURG*    CLOUDY    33  31  92 E5        29.96R WCI  29
ROBINSON*      CLOUDY    28  27  94 S6        29.96F WCI  22
CARMI*         CLOUDY    32  30  93 SE5       29.95S WCI  27
$$

ABBREVIATIONS USED IN REMARKS
   TC - TEMPERATURE IN CELSIUS
  WCI - WIND CHILL INDEX
   HX - HEAT INDEX
  VSB - VISIBILITY
$$




USA.gov is the U.S. government's official web portal to all federal, state and local government web resources and services.